Location: Sungai Laei
(2.6000°N, 113.7167°E)
Time: 10:52:41
(UTC+00:00)

Cosmos 1110 Rocket - Pass Details

Date: 22 May 2022
Orbit: 751 x 782 km, 74.0° (Epoch: 06 July)

Event Time Altitude Azimuth Distance (km) Brightness Sun altitude
Exits shadow 21:13:53 11° 202° (SSW) 2,187 6.0 -14.9°
Maximum altitude 21:18:44 63° 282° (WNW) 838 4.0 -13.8°
Drops below altitude 10° 21:23:48 10° 3° (N) 2,262 6.8 -12.6°
Sets 21:26:11 0° 6° (N) 3,185 7.6 -12.1°
